Location: Powder Track
(41.8531°N, 72.3584°W)
Time: 02:23:03
(UTC+00:00)

Vanguard 1 Rocket - Pass Details

Date: 11 August 2021
Orbit: 650 x 4226 km, 34.3° (Epoch: 16 September)

Event Time Altitude Azimuth Distance (km) Brightness Sun altitude
Rises 08:52:48 0° 193° (SSW) 7,642 11.7 -11.0°
Reaches altitude 10° 08:59:19 10° 181° (S) 7,012 11.6 -9.9°
Maximum altitude 09:17:32 26° 135° (SE) 6,094 11.8 -7.0°
Drops below altitude 10° 09:34:55 10° 89° (E) 6,819 13.2 -4.1°
Sets 09:40:53 0° 78° (ENE) 7,424 14.2 -3.1°
